Weather History for Miami, FL

Change the Weather History Date:

Saturday, January 25, 2014

  Actual Average Record
Temperature  
Mean Temperature 65 °F 68 °F  
Max Temperature 76 °F 77 °F 84 °F (1987)
Min Temperature 53 °F 60 °F 36 °F (1940)
Degree Days  
Heating Degree Days 0 2  
Month to date heating degree days 55 50  
Since 1 July heating degree days 57 87  
Cooling Degree Days 0 5  
Month to date cooling degree days 118 125  
Year to date cooling degree days 118 125  
Growing Degree Days 14 (Base 50)    
Moisture  
Dew Point 56 °F    
Average Humidity 73    
Maximum Humidity 89    
Minimum Humidity 57    
Precipitation  
Precipitation 0.00 in 0.06 in 1.50 in (1931)
Month to date precipitation 1.02 1.29  
Year to date precipitation 1.02 1.29  
Snow  
Snow 0.00 in - - ()
Month to date snowfall 0.0  
Since 1 July snowfall 0.0  
Snow Depth 0.00 in    
Sea Level Pressure  
Sea Level Pressure 30.14 in    
Wind  
Wind Speed 4 mph (South)    
Max Wind Speed 13 mph    
Max Gust Speed 20 mph    
Visibility 10 miles    
Events      
T = Trace of Precipitation, MM = Missing Value Source: NWS Daily Summary

Daily Weather History Graph

Daily Weather History Graph

Search for Another Location

Airport:

Trip Planner

Search our weather history database for the weather conditions in past years. The results will help you decide how hot, cold, wet, or windy it might be!

Date:

Astronomy

Jan. 25, 2014 Rise Set
Actual Time 7:07 AM EST 5:59 PM EST
Civil Twilight 6:43 AM EST 6:24 PM EST
Nautical Twilight 6:15 AM EST 6:51 PM EST
Astronomical Twilight 5:48 AM EST 7:19 PM EST
Moon 1:40 AM EST (1/25) 12:58 PM EST (1/25)
Length of Visible Light 11h 40m
Length of Day
10h 52m
Waning Crescent, 34% of the Moon is Illuminated
Jan 25
Waning Crescent
Jan 30
New
Feb 6
First Quarter
Feb 14
Full
Feb 22
Last Quarter

Hourly Weather History & Observations

Time (EST) Temp. Dew Point Humidity Pressure Visibility Wind Dir Wind Speed Gust Speed Precip Events Conditions
12:53 AM 57.0 °F 50.0 °F 77% 30.22 in 10.0 mi NNW 8.1 mph - N/A   Partly Cloudy
1:53 AM 55.9 °F 50.0 °F 80% 30.21 in 10.0 mi NNW 5.8 mph - N/A   Partly Cloudy
2:53 AM 55.0 °F 50.0 °F 83% 30.20 in 10.0 mi NNW 6.9 mph - N/A   Partly Cloudy
3:53 AM 55.0 °F 50.0 °F 83% 30.19 in 10.0 mi NNW 6.9 mph - N/A   Partly Cloudy
4:53 AM 54.0 °F 50.0 °F 86% 30.19 in 10.0 mi NNW 4.6 mph - N/A   Partly Cloudy
5:53 AM 54.0 °F 50.0 °F 86% 30.18 in 10.0 mi Calm Calm - N/A   Partly Cloudy
6:53 AM 54.0 °F 50.0 °F 86% 30.19 in 10.0 mi NNW 4.6 mph - N/A   Scattered Clouds
7:53 AM 55.9 °F 51.1 °F 84% 30.18 in 10.0 mi Calm Calm - N/A   Scattered Clouds
8:53 AM 61.0 °F 53.1 °F 75% 30.19 in 10.0 mi Calm Calm - N/A   Scattered Clouds
9:53 AM 68.0 °F 57.0 °F 68% 30.20 in 10.0 mi Calm Calm - N/A   Mostly Cloudy
10:53 AM 72.0 °F 57.9 °F 61% 30.19 in 10.0 mi Variable 3.5 mph - N/A   Scattered Clouds
11:53 AM 73.9 °F 57.9 °F 57% 30.15 in 10.0 mi ESE 9.2 mph - N/A   Mostly Cloudy
12:53 PM 75.0 °F 60.1 °F 60% 30.12 in 10.0 mi SE 5.8 mph - N/A   Mostly Cloudy
1:53 PM 73.9 °F 59.0 °F 59% 30.09 in 10.0 mi ESE 6.9 mph - N/A   Mostly Cloudy
2:53 PM 75.0 °F 59.0 °F 57% 30.08 in 10.0 mi South 5.8 mph - N/A   Mostly Cloudy
3:53 PM 72.0 °F 57.9 °F 61% 30.07 in 10.0 mi SE 4.6 mph - N/A   Mostly Cloudy
4:53 PM 72.0 °F 57.9 °F 61% 30.07 in 10.0 mi SE 5.8 mph - N/A   Mostly Cloudy
5:53 PM 71.1 °F 59.0 °F 66% 30.08 in 10.0 mi South 5.8 mph - N/A   Mostly Cloudy
6:53 PM 69.1 °F 59.0 °F 70% 30.08 in 10.0 mi SSE 5.8 mph - N/A   Scattered Clouds
7:53 PM 68.0 °F 59.0 °F 73% 30.09 in 10.0 mi SSE 3.5 mph - N/A   Partly Cloudy
8:53 PM 66.9 °F 59.0 °F 76% 30.09 in 10.0 mi South 3.5 mph - N/A   Clear
9:53 PM 66.0 °F 59.0 °F 78% 30.10 in 10.0 mi WSW 4.6 mph - N/A   Clear
10:53 PM 64.9 °F 59.0 °F 81% 30.11 in 10.0 mi West 3.5 mph - N/A   Clear
11:53 PM 63.0 °F 59.0 °F 87% 30.11 in 10.0 mi Calm Calm - N/A   Clear